Regional Weather Roundup
Issued by NWS

Home | Current Version | Previous Version | Graphics & Text | Print | Product List | Glossary On
Versions: 1 2 3 4 5 6 7 8 9 10 11 12 13 14 15 16 17 18 19 20 21 22 23 24 25 26 27 28 29 30 31 32 33 34 35 36 37 38 39 40 41 42 43 44 45 46 47 48 49 50
000
ASUS43 KOAX 302002
RWRNE

WEATHER ROUNDUP FOR NEBRASKA
NATIONAL WEATHER SERVICE OMAHA NE
300 PM CDT TUE AUG 30 2016

NOTES: SATELLITE DATA IS BEING USED TO AUGMENT CLOUD COVER ABOVE
       12000 FEET.
       "FAIR" INDICATES FEW OR NO CLOUDS BELOW 12,000 FEET WITH NO
       SIGNIFICANT WEATHER AND/OR OBSTRUCTIONS TO VISIBILITY.

  * THESE STATIONS DO NOT REPORT WEATHER SUCH AS RAIN...SNOW OR FOG.

NEZ001>004-019>022-054>056-302100-
NEBRASKA PANHANDLE

CITY           SKY/WX    TMP DP  RH WIND       PRES   REMARKS
SCOTTSBLUFF    SUNNY     83  56  39 SE8       30.25F
ALLIANCE       SUNNY     81  57  43 CALM      30.24F
CHADRON        SUNNY     88  50  27 E10       30.20F
KIMBALL        CLOUDY    78  55  44 E8G17     30.30S
SIDNEY         MOSUNNY   79  55  43 E10       30.28F
$$

NEZ057>060-069>072-079>082-302100-
SOUTHWEST NEBRASKA

CITY           SKY/WX    TMP DP  RH WIND       PRES   REMARKS
NORTH PLATTE   CLOUDY    79  64  60 SE8       30.22F
IMPERIAL       CLOUDY    75  63  66 SE8       30.24F
LEXINGTON      LGT RAIN  72  65  81 CALM      30.23F
MCCOOK         CLOUDY    76  65  68 E5        30.22F
OGALLALA         N/A     82  57  42 S7        30.23F
$$

NEZ005>010-023>029-035>040-094-302100-
NORTH CENTRAL NEBRASKA

CITY           SKY/WX    TMP DP  RH WIND       PRES   REMARKS
VALENTINE      MOSUNNY   87  59  38 SE8       30.20F
AINSWORTH      SUNNY     85  64  49 E7        30.21F
BROKEN BOW     CLOUDY    74  67  78 N7        30.23S
O`NEILL        MOSUNNY   83  62  48 SE9       30.21F
ORD            CLOUDY    79  63  57 VRB3      30.20F
THEDFORD       MOSUNNY   85  60  42 E5        30.21F
$$

NEZ041-046>049-061>064-073>077-083>087-302100-
SOUTH CENTRAL NEBRASKA

CITY           SKY/WX    TMP DP  RH WIND       PRES   REMARKS
GRAND ISLAND   LGT RAIN  71  69  93 E6        30.21F
AURORA         CLOUDY    73  71  94 E5        30.20F
HASTINGS       PTSUNNY   79  65  62 N6        30.21F
HEBRON         CLOUDY    76  70  81 CALM      30.17F
HOLDREGE       CLOUDY    75  65  69 NE3       30.21F
KEARNEY *      CLOUDY    79  66  65 E14       30.21F
YORK           CLOUDY    75  70  83 CALM      30.18F
$$

NEZ011>018-030>034-042>045-302100-
NORTHEAST NEBRASKA

CITY           SKY/WX    TMP DP  RH WIND       PRES   REMARKS
NORFOLK        CLOUDY    77  66  68 S5        30.19F
ALBION         CLOUDY    76  69  77 S5        30.20F
BLAIR          CLOUDY    78  67  69 CALM      30.17F
FREMONT        MOSUNNY   76  68  77 CALM      30.19F
TEKAMAH        MOSUNNY   77  68  73 CALM      30.17F
WAYNE          PTSUNNY   78  70  77 NW6       30.19F
$$

NEZ050>053-065>068-078-088>093-302100-
SOUTHEAST NEBRASKA

CITY           SKY/WX    TMP DP  RH WIND       PRES   REMARKS
LINCOLN        CLOUDY    80  69  69 VRB3      30.16F
OMAHA EPPLEY   CLOUDY    80  68  66 CALM      30.16F
BEATRICE       PTSUNNY   78  69  74 NE3       30.15F
FALLS CITY     MOSUNNY   81  71  71 VRB3      30.13F
NEBRASKA CITY  CLOUDY    77  69  75 N3        30.15F
PLATTSMOUTH    PTSUNNY   79  68  69 SE3       30.16F
$$

NEZ044-045-051>053-067-302100-
OMAHA AREA

CITY           SKY/WX    TMP DP  RH WIND       PRES   REMARKS
OMAHA EPPLEY   CLOUDY    80  68  66 CALM      30.16F
BLAIR          CLOUDY    78  67  69 CALM      30.17F
FREMONT        MOSUNNY   76  68  77 CALM      30.19F
MILLARD        CLOUDY   N/A N/A N/A CALM      30.16F
PLATTSMOUTH    PTSUNNY   79  68  69 SE3       30.16F
WAHOO          FAIR      76  68  77 N3        30.17F
$$




USA.gov is the U.S. government's official web portal to all federal, state and local government web resources and services.